星链-33780 (STARLINK-33780)

导读

STARLINK-33780是美国太空探索技术公司星链(Starlink)星座的卫星,于2025年4月4日由美国发射升空。作为星链低轨互联网星座组网卫星,它主要用于为全球提供高速宽带互联网服务,尤其覆盖偏远地区,助力全球网络互联互通,进一步扩充了星链星座的卫星规模与服务能力。

基本信息
目录编号:
63459
目录名称:
STARLINK-33780
国际标识:
2025-069AC
轨道中心:
EARTH
卫星名称:
星链-33780
卫星全名:
星链-33780 (STARLINK-33780)
卫星状态:
在轨 (已飞行519 天)
发射日期:
2025-04-04 UTC
国别 :
美国 (US)
星等 :
--
轨道信息
数据来源 国际轨道数据
星历时间: 2026-09-05T02:20:47+0800
15小时前
查看轨道信息
半长轴: 6840.807km
偏心率: 0.0001757
轨道倾角: 53.161°
近地点辐角 64.827°
升交点赤经 23.442°
平近点角 295.291°
近地点: 461.468km
远地点: 463.872km
周期: 93.847分钟
每日圈数: 15.344112
详细信息
固有亮度:
5
最大亮度:
2.5
卫星平台:
Starlink V1.0
覆盖范围:
全球
运营商:
太空探索技术公司
运营商所在国:
美国
制造商(研发单位):
太空探索技术公司
制造商所在国:
美国
使用方式:
暂无
卫星简介
Starlink 计划是 SpaceX 推出的全球卫星互联网项目,通过发射低轨道卫星,为全球尤其是偏远地区提供高速、低延迟的互联网服务。自 2019 年起,Starlink 已部署数千颗卫星,旨在缩小全球数字鸿沟,推动互联网普及。该项目还为军事、航空等行业提供通信支持,带来广泛经济效益。
2D轨道图
3D轨道图
轨道高度分析图
轨道倾角分析图
轨道综合分析图
查看轨道综合分析图
交会数据列表
事件ID 空间交会对象 最接近时刻(TCA) 交会距离 交会风险概率(CRP) 交会风险指数(CRI) 操作
CDM_260907-092205-237806-345921
2026-09-07T
09:22:20+0000
0.804 km
远距离
3.496794E-5 中风险 0.66
CDM_260907-074805-237806-345921
2026-09-07T
07:48:33+0000
2.922 km
极远距离
9.404797E-7 极低风险 0.34